Lake Conroe Weather Center

Moon Phase Calendar



Lake Conroe Water Level
Online Cameras

 


      

Current Conditions in Willis
5/12/2021 12:47:42 PM

66°F
Feels Like 67
Clouds
Humidity
86%
Pressure
30.15"
Wind
1 mph (NE)
Dew Point
62°F
UV Index
4/10 (Moderate)
Visibility
6 mi

Hourly Forecast

Date & Time Wed, May 12
12:00 PM
Wed, May 12
1:00 PM
Wed, May 12
2:00 PM
Wed, May 12
3:00 PM
Wed, May 12
4:00 PM
Wed, May 12
5:00 PM
Wed, May 12
6:00 PM
Wed, May 12
7:00 PM
Wed, May 12
8:00 PM
Wed, May 12
9:00 PM
Wed, May 12
10:00 PM
Wed, May 12
11:00 PM
Thu, May 13
12:00 AM
Thu, May 13
1:00 AM
Thu, May 13
2:00 AM
Thu, May 13
3:00 AM
Thu, May 13
4:00 AM
Thu, May 13
5:00 AM
Thu, May 13
6:00 AM
Thu, May 13
7:00 AM
Thu, May 13
8:00 AM
Thu, May 13
9:00 AM
Thu, May 13
10:00 AM
Thu, May 13
11:00 AM
Thu, May 13
12:00 PM
Thu, May 13
1:00 PM
Thu, May 13
2:00 PM
Thu, May 13
3:00 PM
Thu, May 13
4:00 PM
Thu, May 13
5:00 PM
Thu, May 13
6:00 PM
Thu, May 13
7:00 PM
Thu, May 13
8:00 PM
Thu, May 13
9:00 PM
Thu, May 13
10:00 PM
Thu, May 13
11:00 PM
Fri, May 14
12:00 AM
Fri, May 14
1:00 AM
Fri, May 14
2:00 AM
Fri, May 14
3:00 AM
Fri, May 14
4:00 AM
Fri, May 14
5:00 AM
Fri, May 14
6:00 AM
Fri, May 14
7:00 AM
Fri, May 14
8:00 AM
Fri, May 14
9:00 AM
Fri, May 14
10:00 AM
Fri, May 14
11:00 AM
Condition
Clouds

Clouds

Clouds

Clouds

Clouds

Clouds

Clouds

Clouds

Clouds

Clouds

Clouds

Clouds

Clouds

Clouds

Clouds

Clouds

Clouds

Clouds

Clouds

Clouds

Clouds

Clouds

Clouds

Clouds

Clouds

Clouds

Clouds

Clouds

Clouds

Clouds

Clouds

Clouds

Clouds

Clouds

Clouds

Clouds

Clouds

Clouds

Clear

Clear

Clear

Clouds

Clouds

Clouds

Clouds

Clouds

Clouds

Clouds
Temperature 66°F66°F67°F68°F68°F68°F67°F66°F65°F64°F63°F63°F62°F61°F61°F60°F60°F59°F59°F58°F58°F60°F65°F69°F72°F74°F76°F77°F78°F77°F76°F73°F68°F65°F64°F63°F61°F61°F60°F59°F58°F57°F56°F56°F60°F64°F68°F72°F
Feels Like 66°F67°F67°F68°F69°F68°F67°F66°F65°F64°F63°F62°F62°F61°F60°F60°F59°F59°F58°F57°F57°F59°F64°F68°F71°F74°F76°F77°F77°F77°F75°F73°F67°F65°F63°F62°F61°F60°F60°F58°F57°F57°F56°F55°F59°F64°F68°F71°F
Cloudiness 100%100%100%100%99%99%99%99%100%100%100%100%100%100%100%100%100%100%100%100%100%98%89%73%60%55%56%35%31%41%50%57%94%47%31%24%19%16%0%0%0%21%26%23%50%29%26%20%
Visibility 6 mi6 mi6 mi6 mi6 mi6 mi6 mi6 mi6 mi6 mi6 mi6 mi6 mi6 mi6 mi6 mi6 mi6 mi6 mi6 mi6 mi6 mi6 mi6 mi6 mi6 mi6 mi6 mi6 mi6 mi6 mi6 mi6 mi6 mi6 mi6 mi6 mi6 mi6 mi6 mi6 mi6 mi6 mi6 mi6 mi6 mi6 mi6 mi
Precipitation 22%18%0%0%0%0%0%0%0%0%0%0%0%0%0%0%0%0%0%0%0%0%0%0%0%0%0%0%0%0%0%0%0%0%0%0%0%0%0%0%0%0%0%0%0%0%0%0%
Humidity 85%86%83%80%78%78%79%80%80%81%81%82%81%81%81%80%80%78%76%76%76%72%65%59%54%51%48%47%46%47%52%60%69%72%74%76%79%80%80%84%86%85%84%83%72%62%54%50%
Dew Point 61°F62°F62°F61°F61°F61°F60°F59°F58°F57°F57°F57°F56°F55°F54°F54°F53°F52°F51°F50°F50°F51°F52°F54°F54°F55°F55°F55°F55°F55°F57°F58°F57°F56°F55°F55°F55°F54°F54°F54°F53°F52°F51°F51°F51°F51°F51°F52°F
Pressure 30.15"30.15"30.15"30.15"30.12"30.12"30.12"30.15"30.15"30.18"30.21"30.21"30.24"30.24"30.21"30.21"30.21"30.21"30.24"30.27"30.27"30.3"30.3"30.3"30.27"30.24"30.21"30.18"30.18"30.15"30.15"30.18"30.18"30.21"30.21"30.21"30.21"30.21"30.21"30.21"30.21"30.21"30.21"30.24"30.24"30.27"30.24"30.24"
Wind Speed 9.2 mph9.7 mph10.2 mph10.1 mph10.4 mph10.1 mph10.2 mph9.7 mph10 mph9.6 mph8.8 mph7.9 mph8.3 mph9.4 mph9 mph8.3 mph7.7 mph7.4 mph7.9 mph8.8 mph8.9 mph9.4 mph8.6 mph8.9 mph8.7 mph9 mph8.8 mph8.8 mph8.8 mph9 mph7.9 mph6.7 mph5.8 mph6.5 mph7.4 mph6.8 mph6.2 mph6.8 mph6.8 mph5.9 mph5.6 mph5.6 mph5.6 mph5 mph6.1 mph6.2 mph5.8 mph5.8 mph
Wind
Direction
12°
NNE

N

N

N

N

N

N
14°
NNE
19°
NNE
26°
NNE
32°
NNE
30°
NNE
22°
NNE
22°
NNE
27°
NNE
29°
NNE
26°
NNE
22°
NNE
20°
NNE
18°
NNE
25°
NNE
29°
NNE
30°
NNE
31°
NNE
32°
NNE
35°
NE
38°
NE
42°
NE
46°
NE
50°
NE
54°
NE
54°
NE
46°
NE
43°
NE
48°
NE
57°
ENE
67°
ENE
77°
ENE
86°
E
90°
E
89°
E
97°
E
86°
E
77°
ENE
84°
E
96°
E
95°
E
94°
E

Daily Forecast

Date High Low Precip. Humidity
Today
May 12

Rain
68 °F
63 °F
100%
86%
Thursday
May 13

Clouds
78 °F
58 °F
0%
51%
Friday
May 14

Clouds
81 °F
56 °F
0%
45%
Saturday
May 15

Clouds
84 °F
63 °F
1%
44%
Sunday
May 16

Rain
78 °F
66 °F
100%
76%
Monday
May 17

Rain
85 °F
70 °F
98%
63%
Tuesday
May 18

Rain
86 °F
72 °F
98%
62%
Wednesday
May 19

Rain
88 °F
73 °F
44%
58%
Thursday
May 20

Rain
76 °F
67 °F
100%
91%
Friday
May 21

Rain
89 °F
68 °F
100%
85%
Saturday
May 22

Rain
91 °F
75 °F
33%
56%
Sunday
May 23

Clouds
93 °F
77 °F
0%
50%
Monday
May 24

Rain
93 °F
75 °F
68%
48%
Tuesday
May 25

Rain
94 °F
74 °F
72%
47%
Wednesday
May 26

Clear
94 °F
73 °F
64%
44%
Thursday
May 27

Rain
92 °F
72 °F
72%
45%

Temperature 8-14 Day Outlook



Precipitation 8-14 Day Outlook




Quick Links
Lake Conroe News
Lake Conroe Photos
Lake Conroe Videos




About Us
Contact Us
Site Map
Search Site
Advertise With Us
   
Conroe.USLakes.info
THE LAKE CONROE WEBSITE

Copyright 2021, Lakes Online
Privacy    |    Legal